RH
23 8 7 5 5 5 7 10 14 22 24 24 59 94 100 100 98 100 72 42 18 28 36 48 48 70 87 97 97 97 96 95 97 95 97 95 86 69 63 54 52 50 46 45 46
10 6 5 5 6 24 47 48 18 31 35 33 25 29 68 97 98 90 92 55 34 20 40 39 49 55 84 96 97 96 94 84 95 100 97 96 98 77 70 62 48 50 50 47 46
7 5 5 5 33 99 100 99 89 62 36 32 42 41 32 44 93 100 100 77 52 34 18 47 46 59 53 85 96 96 89 100 97 98 96 96 94 98 69 66 55 47 48 46 44
6 6 6 5 56 100 100 92 100 95 96 68 28 39 34 29 45 97 98 93 72 58 38 27 51 49 54 58 90 91 97 97 98 96 98 95 97 94 69 59 60 51 42 40 39
7 8 9 7 56 100 96 67 96 100 91 93 100 100 88 30 41 46 99 98 82 63 44 24 35 45 52 57 72 92 97 97 97 96 98 97 89 100 84 61 56 55 45 38 36
14 13 11 12 58 96 88 82 78 90 83 76 100 100 100 78 33 31 90 99 90 70 48 39 21 41 49 55 67 71 96 96 96 89 96 97 96 99 90 72 51 53 49 37 34
20 17 21 31 27 78 82 86 76 84 100 81 85 100 100 100 77 25 32 100 100 86 95 45 28 26 51 50 55 68 93 96 90 88 96 98 98 95 96 74 50 45 48 35 30
23 26 60 70 57 41 61 66 72 79 100 86 86 100 99 100 92 66 30 94 100 100 95 94 41 21 30 49 57 66 93 90 88 86 95 98 84 88 76 65 53 43 43 38 30
25 24 65 99 94 64 48 49 60 86 82 72 76 82 84 76 82 88 53 80 100 100 100 98 64 25 16 46 58 75 88 80 82 96 97 96 81 92 74 58 51 45 40 39 33
26 24 76 100 100 96 67 76 73 74 69 58 72 82 78 84 67 76 56 71 100 100 100 92 78 55 17 23 35 39 56 60 67 80 97 94 80 94 88 65 51 43 41 39 35
26 34 54 41 55 81 100 73 63 50 50 67 64 69 79 76 69 59 100 84 97 99 97 83 74 42 21 11 25 49 63 55 58 66 91 92 94 97 87 80 58 46 41 39 38
23 31 28 34 46 56 69 68 55 67 58 47 43 44 54 60 76 59 78 97 86 73 77 83 58 45 41 24 26 41 59 58 62 74 93 89 89 96 83 74 62 51 42 38 34
20 30 18 31 49 50 64 70 76 89 100 88 79 61 44 36 46 51 38 77 68 69 71 86 57 43 71 70 51 24 45 57 56 60 74 69 71 88 89 81 68 64 49 40 37
16 25 18 31 42 45 53 75 90 100 100 100 100 97 73 47 40 41 34 47 73 98 100 100 100 73 83 73 56 28 46 65 60 62 74 76 59 74 92 93 83 67 58 48 39
13 18 19 23 36 38 39 71 66 72 99 100 100 100 100 100 73 46 38 36 74 98 68 52 60 78 53 61 50 45 59 63 81 84 80 86 65 61 80 84 78 70 59 48 42
9 13 20 18 28 30 32 39 57 63 98 100 99 96 100 100 100 87 50 47 62 98 89 49 69 85 57 62 49 46 58 62 65 96 81 78 76 57 73 74 76 77 58 57 48
12 13 13 22 25 33 32 42 53 44 58 89 98 100 100 95 100 100 72 46 41 84 100 85 90 78 78 73 68 45 70 75 73 66 66 62 59 50 60 68 69 76 69 63 66
21 11 14 15 26 29 30 36 50 33 43 73 83 89 99 100 92 99 73 75 74 55 62 64 72 88 58 46 53 76 94 84 88 62 61 68 54 51 53 66 72 46 53 72 78
33 12 16 15 20 32 38 45 57 56 48 59 79 97 98 100 100 100 100 79 94 82 65 56 49 45 44 42 62 76 73 86 94 89 82 63 56 54 50 52 68 40 24 31 50
19 22 12 17 19 26 35 37 52 47 52 70 65 77 84 90 100 95 93 94 97 94 91 90 81 80 77 80 81 80 100 100 99 94 86 69 56 44 48 41 60 70 37 25 21
6 41 16 13 23 21 26 33 36 36 28 63 82 73 53 53 59 93 91 91 88 100 97 92 98 98 99 95 93 99 93 100 100 100 93 82 64 52 45 38 31 37 72 53 42
5 45 22 14 15 31 29 30 29 32 28 26 30 36 36 40 48 49 57 87 100 100 100 100 98 100 91 100 99 93 100 94 98 98 99 83 68 58 48 42 38 33 29 26 25
4 32 33 17 14 20 24 28 29 29 23 28 27 28 38 45 48 47 47 44 58 87 99 100 94 97 99 100 97 88 99 94 92 99 95 91 68 68 60 52 47 40 32 27 23
4 16 61 21 16 21 26 28 28 27 22 31 39 36 41 49 58 59 53 51 48 45 56 75 86 94 100 94 96 95 97 100 99 99 97 90 84 90 98 84 75 59 50 42 36
6 10 66 23 22 19 22 26 28 28 26 27 37 47 64 67 72 79 70 63 62 61 61 59 71 77 90 90 88 86 90 82 84 100 85 94 90 86 71 56 54 48 40 40 32
8 11 53 77 21 26 25 27 25 24 34 41 49 49 50 54 59 61 79 76 84 85 72 72 78 70 74 91 95 93 77 71 76 84 79 91 76 65 68 52 52 42 34 32 29
6 12 32 100 56 18 30 38 43 40 36 44 52 54 53 61 66 73 72 73 73 70 66 72 69 58 68 74 69 81 100 90 78 68 72 74 73 51 86 46 41 36 32 30 36
Wind_Speed
57 60 62 60 56 54 51 55 59 62 62 59 58 59 59 55 58 57 55 48 45 46 46 52 51 50 53 48 49 49 56 44 54 59 52 51 50 51 42 41 42 44 41 36 34
59 62 65 62 57 43 37 39 50 61 62 62 58 57 59 61 57 56 55 53 47 46 48 45 49 48 50 45 42 44 52 42 42 47 51 52 48 51 43 45 46 44 39 36 36
64 68 68 63 39 28 29 24 24 28 44 62 66 62 60 58 57 58 59 57 49 48 45 47 48 50 48 50 43 40 44 38 40 42 43 44 49 29 45 47 47 43 39 37 38
67 73 73 60 28 24 23 19 13 9 12 21 40 50 63 61 54 59 61 60 51 48 47 47 46 47 48 46 49 40 39 39 47 46 42 45 47 40 45 49 48 45 43 41 41
69 76 74 52 19 17 18 13 11 10 8 13 18 22 30 57 59 56 59 62 54 50 46 43 45 43 44 42 43 48 45 45 47 48 43 45 43 47 44 49 46 46 42 41 41
68 73 70 49 20 16 15 13 12 11 9 4 13 15 24 32 52 56 55 59 55 51 49 45 42 45 42 43 41 41 44 42 46 54 50 35 33 30 41 46 46 46 44 39 39
63 65 66 62 34 17 15 12 16 13 8 4 15 23 26 25 34 55 53 56 47 51 42 47 44 44 45 42 44 44 43 40 40 45 42 32 42 40 37 46 46 43 42 39 41
58 55 65 67 68 27 10 10 6 9 7 4 10 21 21 24 32 39 51 58 51 43 46 46 47 43 44 44 41 45 42 43 39 39 39 44 37 40 38 42 44 43 40 40 42
50 52 62 55 62 58 24 14 10 4 8 5 10 20 19 25 35 39 43 54 52 45 46 45 43 45 43 44 43 44 40 40 36 35 38 41 40 40 44 44 44 44 43 42 42
45 51 57 53 48 57 45 23 16 8 9 5 9 16 24 27 32 38 41 50 48 45 44 45 42 42 44 40 39 33 30 35 35 34 40 40 38 39 42 46 44 41 40 40 39
41 47 50 49 54 55 54 38 25 14 6 9 12 12 17 25 30 38 44 49 51 50 39 41 40 35 33 34 36 37 33 37 37 38 40 41 39 36 40 44 43 38 38 39 38
37 41 45 45 47 50 42 41 34 28 18 9 9 14 19 24 30 36 46 44 46 48 36 36 39 34 35 36 34 38 36 34 41 39 37 41 39 39 39 41 41 36 38 39 40
32 35 36 34 38 37 36 39 42 39 31 45 34 22 20 24 31 36 41 47 41 42 33 30 31 35 35 34 37 34 34 35 38 37 38 38 42 39 35 38 44 34 36 37 38
28 26 28 26 30 29 29 31 36 34 31 27 28 31 28 19 25 35 39 48 49 46 37 35 29 31 34 33 36 36 37 37 36 36 35 39 41 41 40 37 46 40 36 36 38
25 20 24 18 24 23 25 30 39 33 38 38 27 27 15 17 28 28 36 42 45 44 46 42 35 33 29 30 34 36 39 38 33 38 38 40 41 36 40 42 37 46 38 36 34
21 17 16 11 17 18 22 22 30 30 31 26 28 18 22 23 21 23 35 41 46 32 43 43 41 28 28 32 30 32 37 37 37 36 39 35 39 37 34 36 36 40 43 35 34
18 14 11 11 10 14 17 17 22 24 23 22 25 27 19 25 24 23 26 35 36 38 37 39 39 31 26 24 28 32 34 37 39 40 35 34 39 34 32 36 38 32 49 42 37
15 10 6 6 8 7 9 13 13 19 23 16 24 26 20 19 15 23 19 23 26 29 33 42 44 36 33 30 29 29 32 32 33 35 35 39 38 36 31 34 37 31 33 47 50
15 11 3 2 1 3 6 12 13 15 18 13 12 20 14 18 21 15 12 16 18 19 23 24 33 45 46 37 37 34 34 35 32 32 40 38 36 34 33 28 32 29 30 31 35
16 12 8 3 4 4 3 5 8 12 11 11 9 11 16 19 15 18 14 15 19 19 22 24 27 31 34 37 32 30 34 32 34 35 37 41 38 36 34 31 28 32 31 30 31
18 11 11 9 8 8 9 3 2 4 6 8 7 6 8 12 13 11 13 12 14 15 20 18 23 21 19 30 23 21 23 27 29 33 35 38 41 38 36 35 32 32 34 34 34
16 13 13 11 12 11 9 11 5 2 2 3 3 3 2 4 7 7 7 6 11 11 10 11 21 21 24 20 21 19 18 21 27 30 33 34 36 36 36 35 34 33 34 35 36
18 12 15 12 12 13 14 11 11 8 4 4 3 2 2 1 2 4 7 8 9 8 10 12 16 20 21 24 22 22 18 13 13 16 26 31 34 32 33 34 34 34 35 35 36
22 12 16 16 14 14 13 12 11 11 9 6 5 4 4 3 3 3 5 9 12 13 13 13 13 14 20 18 16 19 15 17 24 26 23 20 23 23 24 25 28 28 33 35 35
23 11 15 19 17 17 17 14 12 11 11 10 8 6 6 7 7 7 5 8 10 12 14 17 18 20 22 22 22 21 22 21 19 18 17 17 24 21 18 21 19 23 25 28 29
22 12 17 20 22 21 19 16 15 14 13 11 9 10 11 10 10 11 9 8 10 11 9 10 15 21 21 22 25 25 25 25 21 20 20 20 18 15 15 14 19 20 20 22 23
26 15 19 20 26 24 21 20 18 16 15 13 11 9 8 8 7 9 10 10 10 10 11 13 15 15 18 23 24 25 23 24 24 22 23 25 19 21 16 16 19 20 19 18 18
Wind_Direction
332 327 321 319 307 293 278 263 252 247 245 242 237 238 233 230 226 222 219 219 214 215 213 215 212 218 226 221 218 211 206 210 211 213 204 201 208 217 214 219 219 226 223 224 227
333 329 331 328 317 304 285 268 259 250 247 242 237 233 233 231 221 221 215 216 213 214 214 214 217 216 222 218 222 216 204 205 213 214 211 207 213 218 210 217 216 224 226 226 228
337 337 341 336 320 291 287 294 277 261 249 247 246 239 233 229 225 214 213 213 211 211 212 213 215 214 216 222 212 220 198 204 202 199 204 206 214 209 210 218 220 218 220 222 227
343 345 348 342 323 289 300 290 279 257 252 251 240 241 236 227 227 219 210 209 211 213 211 210 214 215 217 220 219 208 205 203 205 203 196 214 217 219 214 219 220 218 220 217 222
350 351 352 347 331 290 308 287 255 254 279 245 215 215 222 231 223 221 209 206 208 210 211 211 213 215 218 220 224 224 224 218 209 199 194 211 228 219 217 220 222 221 219 221 224
355 354 357 358 336 318 319 290 266 246 273 261 196 191 193 218 219 217 216 206 202 209 208 209 210 213 214 215 221 226 224 218 218 199 195 204 196 212 216 214 223 222 219 219 222
360 2 9 16 1 322 305 283 278 247 235 227 200 182 199 208 207 211 209 207 200 209 207 207 209 211 213 212 214 219 226 217 217 215 213 204 209 204 218 217 218 223 221 217 221
3 11 16 18 19 4 356 1 317 243 199 225 184 192 206 191 185 194 202 208 198 200 205 206 208 208 211 212 215 220 223 223 214 223 223 216 207 209 205 218 220 220 219 220 222
6 7 13 18 21 20 20 15 12 352 230 204 181 190 179 166 172 175 188 203 199 193 201 204 205 207 211 211 214 219 218 230 224 225 221 223 212 218 213 218 218 220 220 220 223
9 13 16 16 11 19 26 32 38 88 131 171 165 181 183 170 168 167 173 187 195 177 194 201 202 205 208 213 219 227 233 232 231 229 224 224 216 221 219 220 222 223 223 225 227
12 17 20 20 23 18 22 35 50 72 114 144 152 158 163 174 170 165 160 174 189 190 190 194 198 209 213 210 214 218 222 224 222 229 229 219 217 226 222 220 225 225 226 228 229
14 22 30 34 26 24 36 45 52 58 74 97 148 161 166 166 169 172 169 166 183 194 187 194 199 202 207 212 215 215 218 222 224 226 230 226 218 223 225 219 222 226 228 229 231
15 23 36 44 38 35 48 66 68 70 75 79 83 98 129 160 166 172 174 169 172 183 186 195 198 209 215 217 218 221 222 223 227 230 232 235 225 224 228 227 218 221 228 231 234
14 25 44 48 39 38 31 41 35 45 58 60 70 79 105 125 147 164 175 172 164 167 170 175 179 202 207 208 209 214 220 223 227 235 234 230 232 228 225 227 220 220 227 228 233
8 28 43 56 40 39 27 42 40 51 52 50 67 67 77 80 109 144 163 170 171 181 190 191 193 189 189 195 203 211 219 224 230 239 234 227 235 227 229 228 229 219 226 226 229
355 20 36 82 44 40 27 32 31 48 46 36 63 88 105 95 103 144 161 166 170 171 192 203 196 193 196 204 211 219 223 225 230 233 236 231 233 230 229 227 230 227 223 225 228
345 3 33 60 55 34 39 29 30 38 44 62 99 121 122 116 114 146 155 176 185 190 189 188 200 209 211 208 219 224 226 230 234 235 240 229 233 231 225 225 224 228 224 228 234
335 339 28 43 56 45 27 30 18 33 44 67 114 118 106 74 111 143 152 161 170 192 211 218 208 202 210 222 233 230 228 232 242 241 244 233 234 233 229 222 219 221 228 232 236
326 315 336 39 164 47 12 56 58 43 57 77 123 110 85 83 100 109 154 188 169 172 182 188 205 219 225 226 227 229 225 236 243 241 234 231 232 235 230 233 221 221 229 228 230
329 303 280 243 241 245 306 43 78 66 66 69 111 90 69 76 97 114 126 149 183 187 189 182 193 206 215 220 221 222 233 243 241 241 238 234 232 234 233 234 224 222 230 232 235
329 293 284 256 233 238 233 254 74 75 74 110 121 114 70 80 80 110 105 117 143 166 188 190 203 208 205 212 214 224 231 239 239 234 236 236 235 235 238 240 238 235 231 238 243
335 283 277 270 236 231 234 242 249 190 119 154 172 139 94 81 100 119 116 149 146 173 196 209 210 213 211 212 216 220 229 227 228 230 232 239 240 238 240 244 245 244 245 245 247
338 281 265 269 245 233 240 240 245 253 223 209 217 233 184 241 148 176 178 172 180 198 189 191 202 205 208 219 228 225 222 233 230 229 227 234 240 241 242 244 247 247 246 245 248
334 295 258 257 245 238 234 243 246 238 245 256 249 241 249 272 280 256 211 202 196 200 212 210 211 213 222 230 232 220 228 239 245 253 242 238 248 241 243 244 242 244 242 243 247
324 303 251 248 249 242 237 233 237 239 246 257 268 273 289 304 304 294 254 211 209 208 207 212 218 221 227 228 231 233 236 236 239 249 244 245 241 240 239 242 239 244 240 238 240
319 291 248 240 246 244 243 245 241 242 244 250 256 267 280 291 275 273 267 237 206 199 205 220 227 229 233 234 230 228 234 247 240 242 244 258 263 256 248 243 231 236 239 238 237
313 307 255 244 238 244 243 243 244 243 243 249 258 269 283 293 279 260 246 232 216 218 224 230 235 240 240 242 242 241 238 231 237 241 241 247 250 242 233 229 232 234 236 241 242